Flag for Indonesia Weather past 2 weeks in Medan, North Sumatra, Indonesia

Now
77 °F

Fog.


Feels Like: 78 °F
Forecast: 77 / 87 °F
Wind: No wind

Location: Medan / Polonia

Current Time: Oct 22, 2014 at 4:52:22 AM

Latest Report: Oct 22, 2014 at 4:00 AM


Visibility: 2 mi

Pressure: 29.83 "Hg

Humidity: 100%

Dew point: 77 °F

Location of MedanLocation

Historic Weather in Medan — Graph

°F

Medan temperature yesterday

Maximum temperature yesterday: 84 °F (at 12:30 PM)
Minimum temperature yesterday: 77 °F (at 6:00 AM)
Average temperature yesterday: 80 °F

Past Weeks' High & Low Weather Summary

 TemperatureHumidityPressure
High93 °F (Oct 10, 12:00 PM)100% (Oct 7, 6:00 AM)29.92 "Hg (Oct 7, 6:00 AM)
Low73 °F (Oct 17, 4:00 AM)49% (Oct 8, 11:30 AM)29.68 "Hg (Oct 7, 4:00 PM)
Average81 °F86%29.81 "Hg
* Reported Oct 7 3:00 AM — Oct 22 3:30 AM, Medan, Weather by CustomWeather, © 2014

Note: Actual official high and low records may vary slightly from our data, if they occured in-between our weather recording intervals... More about our weather records

Advertising

Medan weather history for previous 24 hours

 ConditionsComfort  
Time TempWeatherWind HumidityBarometerVisibility
3:30 AM
Oct 22
N/AFog.2 mphN/AN/A2 mi
3:00 AM77 °FPassing clouds.No wind100%29.86 "Hg2 mi
2:30 AMN/AFog.2 mphN/AN/A1 mi
2:00 AM77 °FLight rain. Passing clouds.No wind100%29.86 "Hg3 mi
1:30 AM79 °FLight rain. Passing clouds.No wind94%29.86 "Hg3 mi
1:00 AM79 °FFog.2 mph94%29.86 "Hg3 mi
12:30 AM79 °FPassing clouds.No wind94%29.86 "Hg3 mi
12:00 AM79 °FFog.No wind94%29.89 "Hg3 mi
11:30 PM
Oct 21
79 °FPassing clouds.No wind94%29.89 "Hg3 mi
11:00 PM79 °FPassing clouds.6 mph94%29.89 "Hg3 mi
10:30 PM79 °FPassing clouds.5 mph94%29.89 "Hg3 mi
10:00 PM79 °FPassing clouds.No wind94%29.92 "Hg3 mi
9:30 PM79 °FPassing clouds.No wind89%29.89 "Hg3 mi
9:00 PM79 °FPassing clouds.No wind89%29.89 "Hg3 mi
8:30 PM79 °FPassing clouds.No wind89%29.89 "Hg3 mi
8:00 PM79 °FPassing clouds.5 mph89%29.86 "Hg3 mi
7:30 PM79 °FPassing clouds.7 mph94%29.86 "Hg3 mi
7:00 PM81 °FPassing clouds.3 mph94%29.83 "Hg3 mi
6:30 PM81 °FPassing clouds.3 mph89%29.83 "Hg3 mi
6:00 PM82 °FPartly sunny.3 mph84%29.80 "Hg3 mi
5:30 PM82 °FPartly sunny.3 mph84%29.80 "Hg3 mi
5:00 PM82 °FPartly sunny.No wind84%29.80 "Hg3 mi
4:30 PM82 °FPartly sunny.No wind84%29.77 "Hg3 mi
4:00 PM81 °FScattered clouds.No wind89%29.77 "Hg3 mi
3:00 PM82 °FThunderstorms. Scattered clouds.5 mph79%29.77 "Hg4 mi
2:30 PM82 °FThundershowers. Partly sunny.6 mph79%29.80 "Hg4 mi
2:00 PM82 °FPartly sunny.7 mph79%29.80 "Hg4 mi
1:30 PM82 °FPartly sunny.6 mph84%29.83 "Hg4 mi
1:00 PM84 °FPartly sunny.6 mph74%29.86 "Hg4 mi
12:30 PM84 °FPartly sunny.5 mph70%29.89 "Hg4 mi
12:00 PM82 °FPartly sunny.No wind79%29.89 "Hg4 mi
11:30 AM82 °FPartly sunny.No wind79%29.89 "Hg4 mi
11:00 AM82 °FPartly sunny.No wind79%29.92 "Hg4 mi
10:30 AM81 °FPartly sunny.3 mph84%29.92 "Hg4 mi
10:00 AM81 °FPartly sunny.5 mph89%29.92 "Hg4 mi
9:30 AM79 °FScattered clouds.3 mph94%29.92 "Hg4 mi
9:00 AM77 °FPartly sunny.3 mph100%29.92 "Hg2 mi
8:30 AM77 °FScattered clouds.3 mph94%29.92 "Hg2 mi
8:00 AM77 °FScattered clouds.3 mph94%29.89 "Hg2 mi
7:30 AM77 °FFog.No wind94%29.89 "Hg2 mi
7:00 AM77 °FThunderstorms. Scattered clouds.2 mph94%29.89 "Hg2 mi
6:30 AM77 °FThunderstorms. Partly sunny.2 mph94%29.86 "Hg2 mi
6:00 AM77 °FThunderstorms. Passing clouds.13 mph94%29.86 "Hg3 mi
5:30 AM79 °FPassing clouds.No wind94%29.86 "Hg3 mi
5:00 AM79 °FPassing clouds.2 mph94%29.83 "Hg3 mi
4:30 AM79 °FPassing clouds.2 mph94%29.83 "Hg3 mi
4:00 AM79 °FPassing clouds.5 mph94%29.80 "Hg3 mi
Weather by CustomWeather, © 2014

See weather overviewHow to use our weather pages